VE1DX Weather Reports


Display with metric or nautical units.
time (UTC)temp
F
wind
direction
speed
MPH
gust
MPH
rain 1hr
in
rain 24hr
in
rain mn
in
humidity
%
barometer
mb
20260905143517 60 0 5.0 10.0 0.00 0.31 0.04 99 999.7
20260905143017 60 0 5.0 10.0 0.00 0.32 0.04 98 999.7
20260905142517 60 0 6.0 13.0 0.00 0.32 0.04 98 999.7
20260905142017 60 0 6.0 11.0 0.01 0.33 0.04 98 999.6
20260905141516 60 0 6.0 10.0 0.01 0.34 0.04 98 999.6
20260905141017 59 0 6.0 17.0 0.01 0.35 0.04 98 999.7
20260905140517 59 0 5.0 13.0 0.01 0.36 0.04 99 999.7
20260905140017 59 0 6.0 13.0 0.01 0.37 0.04 98 999.6
20260905135517 59 338 6.0 11.0 0.01 0.37 0.04 98 999.7
20260905135017 60 0 5.0 10.0 0.01 0.38 0.04 99 999.6
20260905134517 60 0 5.0 9.0 0.01 0.39 0.04 99 999.5
20260905134016 60 338 7.0 12.0 0.01 0.40 0.04 99 999.5
20260905133516 60 338 6.0 12.0 0.01 0.45 0.04 99 999.5
20260905133016 60 0 5.0 9.0 0.01 0.51 0.04 99 999.5
20260905132517 60 0 5.0 9.0 0.01 0.52 0.04 99 999.6
20260905132017 60 23 4.0 8.0 0.00 0.52 0.03 99 999.5
20260905131517 60 338 3.0 5.0 0.00 0.53 0.03 99 999.4
20260905131017 60 338 5.0 9.0 0.00 0.53 0.03 99 999.3
20260905130517 60 338 6.0 10.0 0.00 0.54 0.03 98 999.3
20260905130017 61 0 4.0 8.0 0.00 0.54 0.03 99 999.3
20260905125517 61 0 4.0 7.0 0.00 0.55 0.03 98 999.3
20260905125017 61 0 4.0 11.0 0.00 0.55 0.03 98 999.3
20260905124517 61 338 5.0 8.0 0.00 0.56 0.03 98 999.3
20260905124017 61 0 3.0 7.0 0.00 0.57 0.03 99 999.4
20260905123517 62 338 4.0 6.0 0.00 0.57 0.03 99 999.4
20260905123017 61 0 3.0 8.0 0.00 0.57 0.03 99 999.2
20260905122516 61 45 3.0 9.0 0.00 0.58 0.03 99 999.2
20260905122017 61 23 3.0 5.0 0.00 0.59 0.03 99 999.2
20260905121517 60 23 4.0 5.0 0.00 0.60 0.03 99 999.2
20260905121017 60 23 5.0 9.0 0.01 0.61 0.03 100 999.3
20260905120517 60 23 4.0 9.0 0.01 0.65 0.03 100 999.2
20260905120017 60 0 4.0 8.0 0.01 0.68 0.03 100 999.3
20260905115517 61 0 4.0 11.0 0.01 0.69 0.03 100 999.2
20260905115017 61 0 5.0 9.0 0.01 0.69 0.03 100 999.3
20260905114516 61 0 4.0 7.0 0.02 0.69 0.03 100 999.1
20260905114017 61 0 5.0 9.0 0.02 0.69 0.03 100 999.1
20260905113517 61 0 5.0 10.0 0.02 0.70 0.03 100 998.9
20260905113016 61 0 4.0 7.0 0.02 0.70 0.03 100 998.8
20260905112517 61 0 4.0 7.0 0.02 0.71 0.03 100 998.7
20260905112017 61 0 3.0 6.0 0.02 0.72 0.03 100 998.5
20260905111516 61 338 3.0 6.0 0.02 0.72 0.03 100 998.6
20260905111017 61 0 3.0 5.0 0.02 0.72 0.02 100 998.5
20260905110516 61 338 3.0 6.0 0.02 0.74 0.02 100 998.5
20260905110017 61 338 3.0 6.0 0.02 0.76 0.02 100 998.4
20260905105516 61 338 2.0 6.0 0.02 0.77 0.02 100 998.3
20260905105017 61 338 2.0 4.0 0.02 0.78 0.02 100 998.4
20260905104517 61 338 2.0 5.0 0.01 0.80 0.02 100 998.3
20260905104017 61 338 2.0 3.0 0.01 0.81 0.02 100 998.3
20260905103517 61 338 2.0 5.0 0.01 0.82 0.02 100 998.2
20260905103016 61 338 2.0 5.0 0.01 0.83 0.02 100 998.2
20260905102517 61 338 2.0 6.0 0.01 0.83 0.02 100 998.2
20260905102016 61 338 2.0 6.0 0.00 0.86 0.01 100 998.3
20260905101517 61 338 2.0 3.0 0.00 0.91 0.01 100 998.3
20260905101016 60 338 1.0 2.0 0.00 0.94 0.01 100 998.2
20260905100517 61 338 1.0 3.0 0.00 0.98 0.01 100 998.1
20260905100016 60 0 1.0 2.0 0.00 1.04 0.01 100 998.1
20260905095516 60 0 1.0 4.0 0.00 1.08 0.01 100 998.1
20260905095017 60 338 1.0 2.0 0.00 1.10 0.01 100 998.1
20260905094516 60 338 1.0 3.0 0.00 1.13 0.01 100 998.1
20260905094017 60 338 1.0 3.0 0.00 1.15 0.01 100 998.1
20260905093516 60 0 1.0 2.0 0.00 1.17 0.01 100 998.2
20260905093016 60 0 1.0 3.0 0.00 1.18 0.01 100 998.1
20260905092517 60 338 1.0 2.0 0.00 1.20 0.01 100 998.1
20260905092016 60 338 1.0 4.0 0.00 1.22 0.01 100 998.1
20260905091517 60 23 1.0 3.0 0.00 1.25 0.01 100 998.0
20260905091017 60 338 2.0 3.0 0.00 1.27 0.01 100 998.0
20260905090516 60 0 1.0 3.0 0.00 1.28 0.01 100 998.0
20260905090017 60 338 2.0 4.0 0.00 1.30 0.01 100 998.1
20260905085517 61 338 2.0 4.0 0.00 1.31 0.01 100 998.1
20260905085016 61 0.0 3.0 0.00 1.32 0.01 100 998.1
20260905084516 61 338 1.0 3.0 0.01 1.34 0.01 100 998.1
20260905084016 61 338 2.0 3.0 0.01 1.35 0.01 100 998.1
20260905083517 61 338 2.0 3.0 0.01 1.35 0.01 100 998.1
20260905083017 61 338 1.0 5.0 0.01 1.35 0.01 100 998.1
20260905082516 61 338 3.0 5.0 0.01 1.37 0.01 100 998.1
20260905082016 61 338 2.0 3.0 0.01 1.38 0.01 100 998.1
20260905081517 61 338 2.0 3.0 0.01 1.39 0.01 100 998.1
20260905081017 61 338 2.0 4.0 0.01 1.39 0.01 100 998.1
20260905080517 61 338 2.0 4.0 0.01 1.39 0.01 100 998.1
20260905080017 61 315 1.0 3.0 0.01 1.40 0.01 100 998.1
20260905075516 61 0.0 0.0 0.01 1.40 0.01 100 998.1
20260905075016 61 0.0 0.0 0.01 1.40 0.01 100 998.1
20260905074516 61 0.0 0.0 0.00 1.39 0.00 100 998.1
20260905074017 61 0.0 0.0 0.00 1.40 0.00 100 998.1
20260905073517 61 0.0 0.0 0.00 1.40 0.00 100 998.2
20260905073017 61 0.0 0.0 0.00 1.40 0.00 100 998.2
20260905072517 61 0.0 0.0 0.00 1.41 0.00 100 998.2
20260905072017 61 0.0 0.0 0.00 1.41 0.00 100 998.2
20260905071517 61 0.0 0.0 0.00 1.42 0.00 100 998.2
20260905071017 61 0.0 0.0 0.00 1.43 0.00 100 998.2
20260905070516 61 0.0 0.0 0.00 1.43 0.00 100 998.1
20260905070016 61 0.0 0.0 0.00 1.43 0.00 100 998.1
20260905065517 61 0.0 0.0 0.00 1.43 0.00 100 998.1
20260905065017 61 0.0 0.0 0.00 1.44 0.00 100 998.2
20260905064517 61 0.0 0.0 0.00 1.44 0.00 100 998.3
20260905064016 61 0.0 0.0 0.00 1.44 0.00 100 998.4
20260905063516 61 0.0 0.0 0.00 1.44 0.00 100 998.4
20260905063017 61 0.0 0.0 0.00 1.44 0.00 100 998.3
20260905062517 61 0.0 0.0 0.00 1.44 0.00 100 998.3
20260905062017 61 0.0 0.0 0.00 1.44 0.00 100 998.4
20260905061517 61 0.0 0.0 0.00 1.45 0.00 100 998.4
20260905061017 61 0.0 0.0 0.00 1.45 0.00 100 998.5
20260905060516 62 0.0 0.0 0.00 1.45 0.00 100 998.5
20260905060017 62 0.0 0.0 0.00 1.45 0.00 100 998.6
20260905055517 62 0.0 1.0 0.00 1.45 0.00 100 998.7
20260905055017 62 0.0 1.0 0.00 1.46 0.00 100 998.7
20260905054517 62 0.0 0.0 0.00 1.46 0.00 100 998.8
20260905054017 62 0.0 0.0 0.00 1.46 0.00 100 998.8
20260905053517 62 0.0 1.0 0.00 1.46 0.00 100 998.9
20260905053016 62 0.0 1.0 0.00 1.46 0.00 100 999.0
20260905052516 62 0.0 1.0 0.00 1.46 0.00 100 999.0
20260905052017 62 0.0 1.0 0.00 1.47 0.00 100 999.1
20260905051516 62 0.0 1.0 0.00 1.47 0.00 100 999.1
20260905051017 62 0.0 0.0 0.00 1.47 0.00 100 999.1
20260905050516 62 0.0 1.0 0.00 1.47 0.00 100 999.1
20260905050016 63 0.0 3.0 0.00 1.47 0.00 100 999.1
20260905045517 63 0.0 0.0 0.00 1.47 0.00 100 999.2
20260905045016 63 0.0 0.0 0.00 1.47 0.00 100 999.1
20260905044517 63 0.0 1.0 0.00 1.47 0.00 100 999.2
20260905044017 63 0.0 2.0 0.00 1.48 0.00 100 999.2
20260905043517 63 0.0 2.0 0.00 1.48 0.00 100 999.2
20260905043017 63 0.0 0.0 0.00 1.48 0.00 100 999.3
20260905042517 63 0.0 0.0 0.00 1.48 0.00 100 999.3
20260905042017 63 0.0 0.0 0.00 1.48 0.00 100 999.5
20260905041517 64 0.0 0.0 0.00 1.48 0.00 100 999.6
20260905041016 64 0.0 0.0 0.00 1.48 0.00 100 999.6
20260905040517 64 0.0 0.0 0.00 1.48 0.00 100 999.6
20260905040017 64 0.0 0.0 0.00 1.48 0.00 100 999.7
20260905035516 64 0.0 1.0 0.00 1.48 0.00 100 999.7
20260905035017 64 0.0 1.0 0.00 1.48 0.00 100 999.8
20260905034517 64 0.0 2.0 0.00 1.48 0.00 100 999.8
20260905034017 64 0.0 2.0 0.00 1.48 0.00 100 1000.0
20260905033517 64 0.0 1.0 0.00 1.48 0.00 100 1000.0
20260905033016 64 0.0 1.0 0.00 1.48 0.00 100 1000.1
20260905032516 64 0.0 1.0 0.00 1.48 0.00 100 1000.1
20260905032017 64 0.0 2.0 0.00 1.48 0.00 100 1000.2
20260905031517 64 0.0 1.0 0.00 1.49 0.00 100 1000.4
20260905031017 64 0.0 2.0 0.00 1.50 0.00 100 1000.3
20260905030517 64 0.0 2.0 0.00 1.50 0.00 100 1000.3
20260905030016 64 0.0 0.0 0.00 1.50 1.50 100 1000.4
20260905025517 64 0.0 0.0 0.00 1.50 1.50 100 1000.4
20260905025017 64 0.0 0.0 0.00 1.50 1.50 100 1000.5
20260905024517 65 0.0 4.0 0.00 1.50 1.50 100 1000.6
20260905024017 65 0.0 1.0 0.00 1.50 1.50 100 1000.6
20260905023517 65 0.0 2.0 0.00 1.50 1.50 100 1000.6
20260905023017 65 0.0 1.0 0.00 1.50 1.50 100 1000.7
20260905022517 65 0.0 0.0 0.00 1.50 1.50 100 1000.7
20260905022017 65 0.0 0.0 0.00 1.50 1.50 100 1000.7
20260905021517 65 0.0 0.0 0.00 1.50 1.50 100 1000.8
20260905021017 65 0.0 1.0 0.00 1.50 1.50 100 1000.9
20260905020517 65 0.0 1.0 0.00 1.50 1.50 100 1000.9
20260905020017 65 0.0 2.0 0.00 1.50 1.50 100 1001.0
20260905015517 65 0.0 1.0 0.00 1.50 1.50 100 1001.1
20260905015017 65 0.0 0.0 0.00 1.50 1.50 100 1001.1
20260905014517 65 0.0 1.0 0.00 1.50 1.50 100 1001.3
20260905014017 65 0.0 2.0 0.00 1.50 1.50 100 1001.4
20260905013517 65 0.0 0.0 0.00 1.50 1.50 100 1001.5
20260905013017 65 0.0 2.0 0.00 1.50 1.50 100 1001.6
20260905012517 65 0.0 0.0 0.00 1.50 1.50 100 1001.7
20260905012017 65 0.0 0.0 0.00 1.50 1.50 100 1001.8
20260905011517 65 0.0 0.0 0.00 1.50 1.50 100 1001.8
20260905011017 65 0.0 0.0 0.00 1.50 1.50 100 1001.9
20260905010518 65 0.0 0.0 0.00 1.50 1.50 100 1002.0
20260905010017 65 0.0 0.0 0.00 1.50 1.50 100 1002.0
20260905005517 65 0.0 0.0 0.00 1.50 1.50 100 1002.2
20260905005017 65 0.0 0.0 0.00 1.50 1.50 100 1002.3
20260905004517 65 0.0 0.0 0.00 1.50 1.50 100 1002.4
20260905004017 65 0.0 0.0 0.00 1.50 1.50 100 1002.4
20260905003517 65 0.0 0.0 0.00 1.50 1.50 100 1002.5
20260905003017 65 0.0 0.0 0.00 1.50 1.50 100 1002.5
20260905002517 65 0.0 0.0 0.00 1.50 1.50 100 1002.5
20260905002017 65 0.0 0.0 0.00 1.50 1.50 100 1002.5
20260905001517 65 0.0 0.0 0.00 1.50 1.50 100 1002.5
20260905001017 65 0.0 0.0 0.00 1.50 1.50 100 1002.5
20260905000517 66 0.0 0.0 0.00 1.50 1.50 100 1002.5
20260905000017 66 0.0 0.0 0.00 1.50 1.50 100 1002.4
20260904235517 66 0.0 0.0 0.00 1.50 1.50 100 1002.4
20260904235017 66 0.0 0.0 0.00 1.50 1.50 100 1002.5
20260904234517 66 0.0 0.0 0.00 1.50 1.50 100 1002.5
20260904234017 66 0.0 0.0 0.00 1.50 1.50 100 1002.5
20260904233517 66 0.0 0.0 0.00 1.50 1.50 100 1002.5
20260904233017 66 0.0 0.0 0.00 1.50 1.50 100 1002.6
20260904232517 66 0.0 0.0 0.00 1.50 1.50 100 1002.6
20260904232017 66 0.0 0.0 0.00 1.50 1.50 100 1002.5
20260904231517 66 0.0 0.0 0.00 1.50 1.50 100 1002.5
20260904231017 66 0.0 0.0 0.00 1.50 1.50 100 1002.6
20260904230517 66 0.0 0.0 0.00 1.50 1.50 100 1002.5
20260904230017 66 0.0 0.0 0.00 1.50 1.50 100 1002.4
20260904225517 66 0.0 0.0 0.00 1.50 1.50 100 1002.5
20260904225017 66 0.0 0.0 0.00 1.50 1.50 100 1002.5
20260904224517 66 0.0 0.0 0.00 1.50 1.50 100 1002.5
20260904224017 66 0.0 0.0 0.00 1.50 1.50 100 1002.5
20260904223517 66 0.0 0.0 0.00 1.50 1.50 100 1002.5
20260904223017 66 0.0 0.0 0.00 1.50 1.50 100 1002.6
20260904222517 66 0.0 0.0 0.00 1.50 1.50 100 1002.6
20260904222017 66 0.0 0.0 0.02 1.50 1.50 100 1002.6
20260904221517 67 0.0 0.0 0.03 1.50 1.50 100 1002.6
20260904221017 67 0.0 0.0 0.03 1.50 1.50 100 1002.6
20260904220517 67 0.0 0.0 0.03 1.50 1.50 100 1002.6
20260904220017 67 0.0 0.0 0.03 1.50 1.50 100 1002.6
20260904215517 67 0.0 0.0 0.03 1.50 1.50 100 1002.6
20260904215017 67 0.0 0.0 0.03 1.50 1.50 100 1002.7
20260904214517 67 0.0 0.0 0.03 1.50 1.50 100 1002.7
20260904214017 67 0.0 0.0 0.03 1.50 1.50 100 1002.7
20260904213517 67 0.0 0.0 0.03 1.50 1.50 100 1002.7
20260904213017 67 0.0 0.0 0.03 1.50 1.50 100 1002.7
20260904212517 67 0.0 0.0 0.03 1.50 1.50 100 1002.8
20260904212017 67 0.0 0.0 0.02 1.48 1.48 100 1002.9
20260904211517 67 0.0 0.0 0.00 1.46 1.46 100 1002.9
20260904211017 67 0.0 1.0 0.01 1.46 1.46 100 1002.9
20260904210517 67 0.0 2.0 0.02 1.47 1.46 100 1003.0
20260904210017 67 0.0 1.0 0.02 1.47 1.46 100 1003.1
20260904205517 67 0.0 0.0 0.02 1.47 1.46 100 1003.1
20260904205017 67 0.0 0.0 0.03 1.47 1.46 100 1003.0
20260904204517 67 0.0 0.0 0.05 1.47 1.46 100 1003.3
20260904204017 67 0.0 2.0 0.06 1.47 1.46 100 1003.2
20260904203517 67 113 1.0 2.0 0.07 1.47 1.46 100 1003.2
20260904203015 68 113 1.0 2.0 0.07 1.47 1.46 100 1003.4
20260904202517 68 0.0 2.0 0.07 1.47 1.46 100 1003.4
20260904202017 68 0.0 3.0 0.07 1.47 1.46 100 1003.5
20260904201517 68 0.0 0.0 0.07 1.47 1.46 100 1003.5
20260904201017 68 0.0 0.0 0.06 1.46 1.46 100 1003.5
20260904200517 68 0.0 0.0 0.06 1.46 1.45 100 1003.5
20260904200017 68 0.0 0.0 0.05 1.45 1.44 100 1003.6
20260904195515 68 0.0 0.0 0.05 1.45 1.44 100 1003.6
20260904195017 68 0.0 2.0 0.04 1.44 1.43 100 1003.6
20260904194517 68 0.0 2.0 0.02 1.43 1.42 100 1003.5
20260904194017 68 0.0 1.0 0.01 1.41 1.40 100 1003.6
20260904193517 68 0.0 1.0 0.00 1.40 1.39 100 1003.6
20260904193017 68 0.0 2.0 0.00 1.40 1.39 100 1003.6
20260904192517 68 135 1.0 4.0 0.00 1.40 1.39 100 1003.7
20260904192015 69 113 1.0 2.0 0.00 1.40 1.39 100 1003.8
20260904191517 69 113 1.0 2.0 0.00 1.40 1.39 100 1003.8
20260904191017 69 113 1.0 2.0 0.00 1.40 1.39 100 1003.9
20260904190517 69 113 1.0 3.0 0.00 1.40 1.39 100 1003.8
20260904190017 69 113 1.0 4.0 0.00 1.40 1.39 100 1003.8
20260904185517 69 113 1.0 3.0 0.00 1.40 1.39 100 1003.9
20260904185017 69 113 1.0 3.0 0.00 1.40 1.39 100 1003.9
20260904184517 70 0.0 3.0 0.00 1.40 1.39 100 1003.9
20260904184017 69 113 1.0 4.0 0.00 1.40 1.39 100 1003.8
20260904183517 69 0.0 2.0 0.00 1.40 1.39 100 1003.9
20260904183017 69 113 1.0 3.0 0.00 1.40 1.39 100 1004.0
20260904182517 69 135 1.0 2.0 0.00 1.40 1.39 100 1004.1
20260904182017 70 135 1.0 3.0 0.00 1.40 1.39 100 1004.1
20260904181517 70 248 1.0 4.0 0.00 1.40 1.39 100 1004.1
20260904181017 69 0.0 4.0 0.00 1.40 1.39 100 1004.1
20260904180517 69 0.0 2.0 0.00 1.40 1.39 100 1004.1
20260904180017 69 113 1.0 4.0 0.00 1.40 1.39 100 1004.1
20260904175517 69 0.0 1.0 0.00 1.40 1.39 100 1004.1
20260904175017 69 135 1.0 3.0 0.00 1.40 1.39 100 1004.3
20260904174517 68 135 1.0 2.0 0.00 1.40 1.39 100 1004.4
20260904174017 68 113 1.0 3.0 0.00 1.40 1.39 100 1004.5
20260904173517 68 113 1.0 2.0 0.00 1.40 1.39 100 1004.6
20260904173017 68 135 1.0 2.0 0.00 1.40 1.39 100 1004.6
20260904172517 68 0.0 1.0 0.00 1.40 1.39 100 1004.7
20260904172017 68 113 1.0 4.0 0.00 1.40 1.39 100 1004.8
20260904171517 68 0.0 3.0 0.00 1.40 1.39 100 1004.8
20260904171017 67 0.0 0.0 0.00 1.40 1.39 100 1004.9
20260904170517 67 0.0 1.0 0.00 1.40 1.39 100 1004.9
20260904170015 67 135 1.0 4.0 0.00 1.40 1.39 100 1005.0
20260904165517 67 0.0 2.0 0.00 1.40 1.39 100 1005.0
20260904165017 67 113 1.0 5.0 0.00 1.40 1.39 100 1005.0
20260904164517 67 135 1.0 3.0 0.01 1.40 1.39 100 1005.0
20260904164017 67 158 1.0 3.0 0.01 1.40 1.39 100 1005.1
20260904163517 67 113 1.0 3.0 0.01 1.40 1.39 100 1005.2
20260904163017 67 135 1.0 4.0 0.02 1.40 1.39 100 1005.2
20260904162517 67 135 1.0 4.0 0.02 1.40 1.39 100 1005.3
20260904162017 67 113 2.0 6.0 0.03 1.40 1.39 100 1005.4
20260904161517 67 135 2.0 4.0 0.05 1.40 1.39 100 1005.4
20260904161017 67 135 3.0 7.0 0.11 1.40 1.39 100 1005.4
20260904160517 67 135 2.0 6.0 0.16 1.40 1.39 100 1005.5
20260904160017 67 135 3.0 6.0 0.17 1.40 1.39 100 1005.5
20260904155517 67 135 3.0 7.0 0.17 1.40 1.39 100 1005.5
20260904155017 67 135 2.0 5.0 0.17 1.40 1.39 100 1005.6
20260904154517 67 135 2.0 5.0 0.17 1.39 1.39 100 1005.6
20260904154017 67 135 2.0 6.0 0.17 1.39 1.39 100 1005.7
20260904153517 67 135 1.0 3.0 0.17 1.39 1.39 100 1005.8
20260904153017 67 135 1.0 4.0 0.17 1.39 1.38 100 1005.8
20260904152517 67 135 2.0 6.0 0.16 1.38 1.37 100 1005.9
20260904152017 66 113 2.0 9.0 0.16 1.37 1.36 100 1005.9
20260904151517 66 135 1.0 4.0 0.15 1.35 1.35 100 1006.0
20260904151017 66 135 1.0 9.0 0.10 1.29 1.28 100 1006.2
20260904150517 66 113 2.0 6.0 0.06 1.24 1.24 100 1006.3
20260904150017 67 113 2.0 6.0 0.06 1.24 1.23 100 1006.2
20260904145517 67 135 2.0 6.0 0.06 1.23 1.22 100 1006.1
20260904145017 66 135 2.0 6.0 0.06 1.23 1.22 100 1006.2
20260904144517 67 135 3.0 9.0 0.08 1.23 1.22 100 1006.3
20260904144017 67 135 2.0 7.0 0.09 1.23 1.22 100 1006.3